FW0655 Weather Reports


time (UTC)temp
F
wind
direction
speed
knots
gust
knots
rain 1hr
in
rain 24hr
in
rain mn
in
humidity
%
barometer
mb
20260506134515 54 211 0.9 2.6 0.09 0.22 0.21 92 1004.5
20260506133015 54 211 0.0 1.7 0.10 0.20 0.19 92 1004.7
20260506131519 53 27 0.0 0.9 0.12 0.19 0.18 92 1005.2
20260506130012 52 27 0.0 1.7 0.10 0.16 0.15 92 1005.7
20260506124511 52 27 0.0 1.7 0.08 0.13 0.12 92 1005.4
20260506123010 52 27 0.0 1.7 0.04 0.09 0.08 92 1005.1
20260506121508 52 27 0.0 3.5 0.02 0.06 0.05 92 1005.0
20260506120012 52 30 0.9 1.7 0.02 0.06 0.05 91 1004.8
20260506114508 52 30 0.0 1.7 0.01 0.07 0.04 91 1005.0
20260506113006 52 30 0.0 1.7 0.01 0.07 0.04 91 1005.4
20260506111510 51 30 0.0 2.6 0.01 0.06 0.03 91 1005.5
20260506110009 51 28 0.9 4.3 0.01 0.06 0.03 91 1005.2
20260506104504 52 59 1.7 2.6 0.01 0.06 0.03 90 1005.4
20260506103003 52 130 0.0 1.7 0.01 0.06 0.03 89 1005.5
20260506101501 52 130 0.0 0.9 0.00 0.05 0.02 89 1005.1
20260506100003 52 130 0.0 0.9 0.01 0.05 0.02 89 1004.9
20260506094603 52 130 0.0 1.7 0.01 0.05 0.02 88 1005.1
20260506093101 52 130 0.0 1.7 0.02 0.05 0.02 88 1005.1
20260506091557 52 130 0.0 1.7 0.02 0.05 0.02 87 1005.1
20260506090110 53 130 0.0 1.7 0.01 0.04 0.01 87 1005.4
20260506084616 53 130 0.0 1.7 0.01 0.04 0.01 86 1005.6
20260506083054 53 130 0.0 2.6 0.00 0.03 0.00 85 1005.7
20260506081600 53 69 0.0 2.6 0.00 0.03 0.00 85 1005.8
20260506073052 53 66 0.0 0.9 0.00 0.03 0.00 85 1005.7
20260506071551 53 66 0.0 1.7 0.00 0.03 0.00 85 1005.7
20260506061549 54 65 0.0 0.9 0.00 0.03 0.00 84 1006.1
20260506044533 54 62 0.0 0.9 0.00 0.03 0.00 81 1007.3
20260506043032 55 62 0.0 0.0 0.00 0.03 0.00 81 1007.4
20260506041546 55 62 0.0 1.7 0.00 0.03 0.00 80 1007.2
20260506040029 55 62 0.9 2.6 0.00 0.03 0.00 79 1007.5
20260506034536 56 43 0.0 1.7 0.00 0.03 0.03 78 1007.5
20260506033025 56 43 1.7 5.2 0.00 0.03 0.03 78 1008.0
20260506031523 56 42 0.9 3.5 0.00 0.03 0.03 77 1007.9
20260506030023 57 67 0.0 8.7 0.00 0.03 0.03 77 1007.8
20260506024518 58 25 2.6 7.0 0.00 0.03 0.03 78 1007.7
20260506023017 59 12 5.2 10.4 0.00 0.03 0.03 80 1007.5
20260506021514 60 18 1.7 3.5 0.00 0.03 0.03 79 1007.1
20260506020012 61 18 0.0 3.5 0.00 0.03 0.03 79 1007.1
20260506014510 61 5 2.6 5.2 0.00 0.03 0.03 80 1006.6
20260506013023 61 351 0.0 3.5 0.00 0.03 0.03 84 1006.6
20260506011521 61 331 0.9 2.6 0.00 0.03 0.03 85 1006.2
20260506010009 62 331 1.7 5.2 0.00 0.03 0.03 83 1006.0
20260506004506 62 157 4.3 7.0 0.00 0.03 0.03 82 1005.5
20260506003005 63 181 1.7 2.6 0.00 0.03 0.03 82 1005.3
20260506001505 63 181 0.0 2.6 0.00 0.03 0.03 81 1005.2
20260506000004 64 179 1.7 2.6 0.00 0.03 0.03 79 1005.1
20260505234504 64 179 0.0 0.9 0.00 0.03 0.03 78 1005.2
20260505233003 65 179 0.9 2.6 0.00 0.03 0.03 78 1005.3
20260505231503 65 179 0.0 0.9 0.00 0.03 0.03 78 1005.2
20260505230005 65 179 0.0 0.9 0.00 0.03 0.03 77 1005.1
20260505224506 65 179 1.7 2.6 0.00 0.03 0.03 77 1005.1
20260505223001 65 179 0.9 3.5 0.00 0.03 0.03 75 1005.1
20260505221502 66 264 1.7 4.3 0.00 0.03 0.03 75 1004.7
20260505220104 66 188 3.5 5.2 0.00 0.03 0.03 75 1005.0
20260505214610 66 155 1.7 4.3 0.00 0.03 0.03 74 1004.3
20260505213058 66 176 0.9 3.5 0.00 0.03 0.03 75 1004.0
20260505211604 65 202 1.7 4.3 0.00 0.03 0.03 78 1004.1
20260505210106 64 178 2.6 6.1 0.00 0.03 0.03 80 1004.0
20260505204604 63 182 2.6 7.8 0.00 0.03 0.03 81 1004.5
20260505203107 63 194 3.5 7.0 0.01 0.03 0.03 82 1004.6
20260505201555 63 208 2.6 4.3 0.01 0.03 0.03 81 1004.7
20260505200108 63 185 1.7 7.0 0.01 0.03 0.03 79 1004.4
20260505194554 63 305 6.1 21.7 0.01 0.03 0.03 74 1004.9
20260505193101 77 250 6.1 13.9 0.00 0.02 0.02 35 1003.2
20260505191557 79 240 4.3 13.9 0.00 0.02 0.02 33 1002.3
20260505190047 79 213 9.6 18.2 0.00 0.02 0.02 35 1002.3
20260505184543 77 222 3.5 13.9 0.00 0.02 0.02 39 1002.8
20260505183043 76 252 7.0 12.2 0.00 0.02 0.02 42 1002.9
20260505181546 74 223 2.6 13.9 0.00 0.02 0.02 52 1003.5
20260505180036 73 209 5.2 13.0 0.00 0.02 0.02 52 1003.8
20260505174536 75 254 3.5 9.6 0.00 0.02 0.02 44 1004.1
20260505173034 75 212 5.2 13.0 0.00 0.02 0.02 45 1004.0
20260505171534 75 175 8.7 19.1 0.00 0.02 0.02 44 1004.1
20260505170133 76 248 5.2 17.4 0.00 0.02 0.02 44 1004.0
20260505164533 76 199 7.0 14.8 0.00 0.02 0.02 43 1003.7
20260505163031 76 215 4.3 12.2 0.00 0.02 0.02 43 1003.9
20260505161632 76 189 8.7 18.2 0.00 0.02 0.02 42 1004.0
20260505153025 75 219 15.6 22.6 0.00 0.02 0.02 42 1004.2
20260505151523 75 194 6.1 10.4 0.00 0.02 0.02 43 1004.3